Time,TemperatureF,DewpointF,PressureIn,WindDirection,WindDirectionDegrees,WindSpeedMPH,WindSpeedGustMPH,Humidity,HourlyPrecipIn,Conditions,Clouds,dailyrainin,SolarRadiationWatts/m^2,SoftwareType,DateUTC
2013-06-23 00:02:00,52.0,14.0,-100.00,West,267,3.0,6.0,22,0.00,,,0.00,0.000000,,2013-06-23 06:02:00,
2013-06-23 00:33:00,46.0,16.0,-100.00,WNW,296,1.0,5.0,29,0.00,,,0.00,0.000000,,2013-06-23 06:33:00,
2013-06-23 00:43:00,46.0,16.0,-100.00,WNW,296,1.0,5.0,29,0.00,,,0.00,0.000000,,2013-06-23 06:43:00,
2013-06-23 00:52:00,46.0,16.0,-100.00,WNW,296,1.0,5.0,29,0.00,,,0.00,0.000000,,2013-06-23 06:52:00,
2013-06-23 01:02:00,46.0,16.0,-100.00,WNW,296,1.0,5.0,29,0.00,,,0.00,0.000000,,2013-06-23 07:02:00,
2013-06-23 01:34:00,42.0,16.0,-100.00,NW,324,3.0,6.0,34,0.00,,,0.00,0.000000,,2013-06-23 07:34:00,
2013-06-23 01:43:00,42.0,16.0,-100.00,NW,324,3.0,6.0,34,0.00,,,0.00,0.000000,,2013-06-23 07:43:00,
2013-06-23 01:53:00,42.0,16.0,-100.00,NW,324,3.0,6.0,34,0.00,,,0.00,0.000000,,2013-06-23 07:53:00,
2013-06-23 02:02:00,42.0,16.0,-100.00,NW,324,3.0,6.0,34,0.00,,,0.00,0.000000,,2013-06-23 08:02:00,
2013-06-23 02:34:00,40.0,18.0,-100.00,West,272,3.0,6.0,41,0.00,,,0.00,0.000000,,2013-06-23 08:34:00,
2013-06-23 02:43:00,40.0,18.0,-100.00,West,272,3.0,6.0,41,0.00,,,0.00,0.000000,,2013-06-23 08:43:00,
2013-06-23 02:53:00,40.0,18.0,-100.00,West,272,3.0,6.0,41,0.00,,,0.00,0.000000,,2013-06-23 08:53:00,
2013-06-23 03:02:00,40.0,18.0,-100.00,West,272,3.0,6.0,41,0.00,,,0.00,0.000000,,2013-06-23 09:02:00,
2013-06-23 03:34:00,40.0,18.0,-100.00,WNW,296,4.0,6.0,40,0.00,,,0.00,0.000000,,2013-06-23 09:34:00,
2013-06-23 03:43:00,40.0,18.0,-100.00,WNW,296,4.0,6.0,40,0.00,,,0.00,0.000000,,2013-06-23 09:43:00,
2013-06-23 03:54:00,40.0,18.0,-100.00,WNW,296,4.0,6.0,40,0.00,,,0.00,0.000000,,2013-06-23 09:54:00,
2013-06-23 04:02:00,40.0,18.0,-100.00,WNW,296,4.0,6.0,40,0.00,,,0.00,0.000000,,2013-06-23 10:02:00,
2013-06-23 04:34:00,37.0,18.0,-100.00,NNW,337,3.0,7.0,46,0.00,,,0.00,0.000000,,2013-06-23 10:34:00,
2013-06-23 04:43:00,37.0,18.0,-100.00,NNW,337,3.0,7.0,46,0.00,,,0.00,0.000000,,2013-06-23 10:43:00,
2013-06-23 04:53:00,37.0,18.0,-100.00,NNW,337,3.0,7.0,46,0.00,,,0.00,0.000000,,2013-06-23 10:53:00,
2013-06-23 05:01:00,37.0,18.0,-100.00,NNW,337,3.0,7.0,46,0.00,,,0.00,0.000000,,2013-06-23 11:01:00,
2013-06-23 05:33:00,36.0,17.0,-100.00,West,261,1.0,6.0,46,0.00,,,0.00,0.000000,,2013-06-23 11:33:00,
2013-06-23 05:43:00,36.0,17.0,-100.00,West,261,1.0,6.0,46,0.00,,,0.00,0.000000,,2013-06-23 11:43:00,
2013-06-23 05:53:00,36.0,17.0,-100.00,West,261,1.0,6.0,46,0.00,,,0.00,0.000000,,2013-06-23 11:53:00,
2013-06-23 06:01:00,36.0,17.0,-100.00,West,261,1.0,6.0,46,0.00,,,0.00,0.000000,,2013-06-23 12:01:00,
2013-06-23 06:34:00,34.0,17.0,-100.00,SE,139,2.0,6.0,49,0.00,,,0.00,6.000000,,2013-06-23 12:34:00,
2013-06-23 06:43:00,34.0,17.0,-100.00,SE,139,2.0,6.0,49,0.00,,,0.00,6.000000,,2013-06-23 12:43:00,
2013-06-23 06:53:00,34.0,17.0,-100.00,SE,139,2.0,6.0,49,0.00,,,0.00,6.000000,,2013-06-23 12:53:00,
2013-06-23 07:02:00,34.0,17.0,-100.00,SE,139,2.0,6.0,49,0.00,,,0.00,6.000000,,2013-06-23 13:02:00,
2013-06-23 07:34:00,44.0,20.0,-100.00,North,360,3.0,5.0,38,0.00,,,0.00,154.000000,,2013-06-23 13:34:00,
2013-06-23 07:43:00,44.0,20.0,-100.00,North,360,3.0,5.0,38,0.00,,,0.00,154.000000,,2013-06-23 13:43:00,
2013-06-23 07:54:00,44.0,20.0,-100.00,North,360,3.0,5.0,38,0.00,,,0.00,154.000000,,2013-06-23 13:54:00,
2013-06-23 08:04:00,44.0,20.0,-100.00,North,360,3.0,5.0,38,0.00,,,0.00,154.000000,,2013-06-23 14:04:00,
2013-06-23 08:34:00,53.0,22.0,-100.00,NE,44,2.0,5.0,30,0.00,,,0.00,396.000000,,2013-06-23 14:34:00,
2013-06-23 08:44:00,53.0,22.0,-100.00,NE,44,2.0,5.0,30,0.00,,,0.00,396.000000,,2013-06-23 14:44:00,
2013-06-23 08:52:00,53.0,22.0,-100.00,NE,44,2.0,5.0,30,0.00,,,0.00,396.000000,,2013-06-23 14:52:00,
2013-06-23 09:05:00,53.0,22.0,-100.00,NE,44,2.0,5.0,30,0.00,,,0.00,396.000000,,2013-06-23 15:05:00,
2013-06-23 09:35:00,57.0,21.0,-100.00,SSE,152,4.0,9.0,24,0.00,,,0.00,630.000000,,2013-06-23 15:35:00,
2013-06-23 09:43:00,57.0,21.0,-100.00,SSE,152,4.0,9.0,24,0.00,,,0.00,630.000000,,2013-06-23 15:43:00,
2013-06-23 09:53:00,57.0,21.0,-100.00,SSE,152,4.0,9.0,24,0.00,,,0.00,630.000000,,2013-06-23 15:53:00,
2013-06-23 10:06:00,57.0,21.0,-100.00,SSE,152,4.0,9.0,24,0.00,,,0.00,630.000000,,2013-06-23 16:06:00,
2013-06-23 10:36:00,64.0,14.0,-100.00,SE,142,10.0,17.0,14,0.00,,,0.00,844.000000,,2013-06-23 16:36:00,
2013-06-23 10:43:00,64.0,14.0,-100.00,SE,142,10.0,17.0,14,0.00,,,0.00,844.000000,,2013-06-23 16:43:00,
2013-06-23 10:53:00,64.0,14.0,-100.00,SE,142,10.0,17.0,14,0.00,,,0.00,844.000000,,2013-06-23 16:53:00,
2013-06-23 11:03:00,64.0,14.0,-100.00,SE,142,10.0,17.0,14,0.00,,,0.00,844.000000,,2013-06-23 17:03:00,
2013-06-23 11:34:00,66.0,14.0,-100.00,SE,141,10.0,21.0,13,0.00,,,0.00,1024.000000,,2013-06-23 17:34:00,
2013-06-23 11:43:00,66.0,14.0,-100.00,SE,141,10.0,21.0,13,0.00,,,0.00,1024.000000,,2013-06-23 17:43:00,
2013-06-23 11:53:00,66.0,14.0,-100.00,SE,141,10.0,21.0,13,0.00,,,0.00,1024.000000,,2013-06-23 17:53:00,
2013-06-23 12:01:00,66.0,14.0,-100.00,SE,141,10.0,21.0,13,0.00,,,0.00,1024.000000,,2013-06-23 18:01:00,
2013-06-23 12:34:00,69.0,12.0,-100.00,SSW,197,12.0,22.0,11,0.00,,,0.00,1211.000000,,2013-06-23 18:34:00,
2013-06-23 12:43:00,69.0,12.0,-100.00,SSW,197,12.0,22.0,11,0.00,,,0.00,1211.000000,,2013-06-23 18:43:00,
2013-06-23 12:53:00,69.0,12.0,-100.00,SSW,197,12.0,22.0,11,0.00,,,0.00,1211.000000,,2013-06-23 18:53:00,
2013-06-23 13:01:00,69.0,12.0,-100.00,SSW,197,12.0,22.0,11,0.00,,,0.00,1211.000000,,2013-06-23 19:01:00,
2013-06-23 13:32:00,69.0,12.0,-100.00,SSW,196,13.0,24.0,11,0.00,,,0.00,1141.000000,,2013-06-23 19:32:00,
2013-06-23 13:43:00,69.0,12.0,-100.00,SSW,196,13.0,24.0,11,0.00,,,0.00,1141.000000,,2013-06-23 19:43:00,
2013-06-23 13:53:00,69.0,12.0,-100.00,SSW,196,13.0,24.0,11,0.00,,,0.00,1141.000000,,2013-06-23 19:53:00,
2013-06-23 14:02:00,69.0,12.0,-100.00,SSW,196,13.0,24.0,11,0.00,,,0.00,1141.000000,,2013-06-23 20:02:00,
2013-06-23 14:34:00,69.0,12.0,-100.00,SSW,195,10.0,25.0,11,0.00,,,0.00,933.000000,,2013-06-23 20:34:00,
2013-06-23 14:42:00,69.0,12.0,-100.00,SSW,195,10.0,25.0,11,0.00,,,0.00,933.000000,,2013-06-23 20:42:00,
2013-06-23 14:53:00,69.0,12.0,-100.00,SSW,195,10.0,25.0,11,0.00,,,0.00,933.000000,,2013-06-23 20:53:00,
2013-06-23 15:01:00,69.0,12.0,-100.00,SSW,195,10.0,25.0,11,0.00,,,0.00,933.000000,,2013-06-23 21:01:00,
2013-06-23 15:34:00,71.0,12.0,-100.00,SSW,207,10.0,20.0,10,0.00,,,0.00,1037.000000,,2013-06-23 21:34:00,
2013-06-23 15:44:00,71.0,12.0,-100.00,SSW,207,10.0,20.0,10,0.00,,,0.00,1037.000000,,2013-06-23 21:44:00,
2013-06-23 15:52:00,71.0,12.0,-100.00,SSW,207,10.0,20.0,10,0.00,,,0.00,1037.000000,,2013-06-23 21:52:00,
2013-06-23 16:01:00,71.0,12.0,-100.00,SSW,207,10.0,20.0,10,0.00,,,0.00,1037.000000,,2013-06-23 22:01:00,
2013-06-23 16:32:00,65.0,18.0,-100.00,SE,133,8.0,27.0,16,0.00,,,0.00,533.000000,,2013-06-23 22:32:00,
2013-06-23 16:43:00,65.0,18.0,-100.00,SE,133,8.0,27.0,16,0.00,,,0.00,533.000000,,2013-06-23 22:43:00,
2013-06-23 16:53:00,65.0,18.0,-100.00,SE,133,8.0,27.0,16,0.00,,,0.00,533.000000,,2013-06-23 22:53:00,
2013-06-23 17:01:00,65.0,18.0,-100.00,SE,133,8.0,27.0,16,0.00,,,0.00,533.000000,,2013-06-23 23:01:00,
2013-06-23 17:33:00,64.0,18.0,-100.00,SSE,148,7.0,17.0,17,0.00,,,0.00,179.000000,,2013-06-23 23:33:00,
2013-06-23 17:44:00,64.0,18.0,-100.00,SSE,148,7.0,17.0,17,0.00,,,0.00,179.000000,,2013-06-23 23:44:00,
2013-06-23 17:52:00,64.0,18.0,-100.00,SSE,148,7.0,17.0,17,0.00,,,0.00,179.000000,,2013-06-23 23:52:00,
2013-06-23 18:01:00,64.0,18.0,-100.00,SSE,148,7.0,17.0,17,0.00,,,0.00,179.000000,,2013-06-24 00:01:00,
2013-06-23 18:42:00,62.0,23.0,-100.00,WNW,300,4.0,25.0,22,0.00,,,0.00,96.000000,,2013-06-24 00:42:00,
2013-06-23 18:52:00,62.0,23.0,-100.00,WNW,300,4.0,25.0,22,0.00,,,0.00,96.000000,,2013-06-24 00:52:00,
2013-06-23 19:01:00,62.0,23.0,-100.00,WNW,300,4.0,25.0,22,0.00,,,0.00,96.000000,,2013-06-24 01:01:00,
2013-06-23 19:32:00,59.0,26.0,-100.00,NNW,348,3.0,9.0,28,0.00,,,0.00,86.000000,,2013-06-24 01:32:00,
2013-06-23 19:42:00,59.0,26.0,-100.00,NNW,348,3.0,9.0,28,0.00,,,0.00,86.000000,,2013-06-24 01:42:00,
2013-06-23 19:53:00,59.0,26.0,-100.00,NNW,348,3.0,9.0,28,0.00,,,0.00,86.000000,,2013-06-24 01:53:00,
2013-06-23 20:02:00,59.0,26.0,-100.00,NNW,348,3.0,9.0,28,0.00,,,0.00,86.000000,,2013-06-24 02:02:00,
2013-06-23 20:33:00,57.0,27.0,-100.00,SSE,159,3.0,8.0,31,0.00,,,0.00,56.000000,,2013-06-24 02:33:00,
2013-06-23 20:42:00,57.0,27.0,-100.00,SSE,159,3.0,8.0,31,0.00,,,0.00,56.000000,,2013-06-24 02:42:00,
2013-06-23 20:53:00,57.0,27.0,-100.00,SSE,159,3.0,8.0,31,0.00,,,0.00,56.000000,,2013-06-24 02:53:00,
2013-06-23 21:01:00,57.0,27.0,-100.00,SSE,159,3.0,8.0,31,0.00,,,0.00,56.000000,,2013-06-24 03:01:00,
2013-06-23 21:33:00,53.0,25.0,-100.00,WNW,293,2.0,13.0,34,0.00,,,0.00,10.000000,,2013-06-24 03:33:00,
2013-06-23 21:43:00,53.0,25.0,-100.00,WNW,293,2.0,13.0,34,0.00,,,0.00,10.000000,,2013-06-24 03:43:00,
2013-06-23 21:53:00,53.0,25.0,-100.00,WNW,293,2.0,13.0,34,0.00,,,0.00,10.000000,,2013-06-24 03:53:00,
2013-06-23 22:02:00,53.0,25.0,-100.00,WNW,293,2.0,13.0,34,0.00,,,0.00,10.000000,,2013-06-24 04:02:00,
2013-06-23 22:33:00,51.0,26.0,-100.00,NW,323,3.0,7.0,37,0.00,,,0.00,0.000000,,2013-06-24 04:33:00,
2013-06-23 22:43:00,51.0,26.0,-100.00,NW,323,3.0,7.0,37,0.00,,,0.00,0.000000,,2013-06-24 04:43:00,
2013-06-23 22:53:00,51.0,26.0,-100.00,NW,323,3.0,7.0,37,0.00,,,0.00,0.000000,,2013-06-24 04:53:00,
2013-06-23 23:02:00,51.0,26.0,-100.00,NW,323,3.0,7.0,37,0.00,,,0.00,0.000000,,2013-06-24 05:02:00,
2013-06-23 23:38:00,48.0,27.0,-100.00,NW,326,3.0,7.0,43,0.00,,,0.00,0.000000,,2013-06-24 05:38:00,
2013-06-23 23:47:00,48.0,27.0,-100.00,NW,326,3.0,7.0,43,0.00,,,0.00,0.000000,,2013-06-24 05:47:00,
2013-06-23 23:55:00,48.0,27.0,-100.00,NW,326,3.0,7.0,43,0.00,,,0.00,0.000000,,2013-06-24 05:55:00,